| time (UTC) | temp F | wind direction | speed MPH | gust MPH | rain 1hr in | rain 24hr in | rain mn in | humidity % | barometer mb |
| 20260508145758 | 55 | 248 | 6.0 | 13.0 | 0.00 | 0.04 | 0.00 | 55 | 1006.6 |
| 20260508145247 | 55 | 270 | 3.0 | 11.0 | 0.00 | 0.04 | 0.00 | 54 | 1006.5 |
| 20260508144738 | 55 | 225 | 3.0 | 16.0 | 0.00 | 0.04 | 0.00 | 54 | 1006.6 |
| 20260508144227 | 55 | 225 | 4.0 | 16.0 | 0.00 | 0.04 | 0.00 | 56 | 1006.6 |
| 20260508143717 | 54 | 248 | 5.0 | 15.0 | 0.00 | 0.04 | 0.00 | 56 | 1006.5 |
| 20260508142146 | 54 | 90 | 3.0 | 11.0 | 0.00 | 0.04 | 0.00 | 56 | 1006.6 |
| 20260508141638 | 54 | 225 | 3.0 | 11.0 | 0.00 | 0.04 | 0.00 | 57 | 1006.9 |
| 20260508141139 | 53 | 135 | 4.0 | 17.0 | 0.00 | 0.04 | 0.00 | 57 | 1006.7 |
| 20260508140616 | 52 | 270 | 6.0 | 17.0 | 0.00 | 0.04 | 0.00 | 59 | 1006.6 |
| 20260508140119 | 51 | 203 | 4.0 | 17.0 | 0.00 | 0.04 | 0.00 | 59 | 1006.8 |
| 20260508135048 | 51 | 293 | 4.0 | 11.0 | 0.00 | 0.04 | 0.00 | 59 | 1006.8 |
| 20260508134536 | 51 | 68 | 4.0 | 15.0 | 0.00 | 0.04 | 0.00 | 60 | 1006.9 |
| 20260508134026 | 51 | 180 | 6.0 | 16.0 | 0.00 | 0.05 | 0.00 | 59 | 1006.9 |
| 20260508133515 | 51 | 293 | 3.0 | 16.0 | 0.00 | 0.05 | 0.00 | 58 | 1006.7 |
| 20260508133011 | 51 | 270 | 4.0 | 15.0 | 0.00 | 0.05 | 0.00 | 59 | 1006.6 |
| 20260508132455 | 51 | 270 | 6.0 | 17.0 | 0.00 | 0.05 | 0.00 | 60 | 1007.0 |
| 20260508131435 | 51 | 225 | 8.0 | 17.0 | 0.00 | 0.06 | 0.00 | 60 | 1006.6 |
| 20260508130924 | 50 | 293 | 9.0 | 17.0 | 0.00 | 0.06 | 0.00 | 61 | 1006.5 |
| 20260508130414 | 50 | 225 | 4.0 | 11.0 | 0.00 | 0.07 | 0.00 | 60 | 1006.5 |
| 20260508125354 | 50 | 315 | 4.0 | 15.0 | 0.00 | 0.07 | 0.00 | 60 | 1006.3 |
| 20260508124333 | 49 | 225 | 2.0 | 13.0 | 0.00 | 0.08 | 0.00 | 61 | 1006.2 |
| 20260508123314 | 49 | 135 | 5.0 | 14.0 | 0.00 | 0.08 | 0.00 | 62 | 1006.3 |
| 20260508122810 | 49 | 135 | 5.0 | 16.0 | 0.00 | 0.08 | 0.00 | 62 | 1006.2 |
| 20260508122254 | 49 | 225 | 7.0 | 16.0 | 0.00 | 0.08 | 0.00 | 61 | 1006.1 |
| 20260508121233 | 49 | 180 | 4.0 | 14.0 | 0.00 | 0.08 | 0.00 | 61 | 1005.9 |
| 20260508120723 | 49 | 225 | 5.0 | 14.0 | 0.00 | 0.08 | 0.00 | 62 | 1006.0 |
| 20260508120213 | 48 | 248 | 2.0 | 14.0 | 0.00 | 0.08 | 0.00 | 61 | 1005.7 |
| 20260508115703 | 48 | 225 | 3.0 | 17.0 | 0.00 | 0.08 | 0.00 | 62 | 1005.8 |
| 20260508115153 | 48 | 270 | 6.0 | 17.0 | 0.00 | 0.11 | 0.00 | 62 | 1005.8 |
| 20260508113621 | 47 | 270 | 4.0 | 15.0 | 0.00 | 0.19 | 0.00 | 63 | 1005.5 |
| 20260508113112 | 47 | 90 | 6.0 | 11.0 | 0.00 | 0.20 | 0.00 | 63 | 1005.4 |
| 20260508112602 | 47 | 203 | 4.0 | 11.0 | 0.00 | 0.20 | 0.00 | 64 | 1005.3 |
| 20260508112051 | 47 | 248 | 6.0 | 8.0 | 0.00 | 0.20 | 0.00 | 63 | 1005.3 |
| 20260508111542 | 47 | 293 | 3.0 | 8.0 | 0.00 | 0.21 | 0.00 | 64 | 1005.1 |
| 20260508111031 | 47 | 270 | 4.0 | 9.0 | 0.00 | 0.22 | 0.00 | 64 | 1005.1 |
| 20260508110522 | 47 | 158 | 4.0 | 11.0 | 0.00 | 0.24 | 0.00 | 63 | 1005.0 |
| 20260508110012 | 47 | 248 | 2.0 | 11.0 | 0.00 | 0.24 | 0.00 | 63 | 1004.8 |
| 20260508105502 | 46 | 248 | 4.0 | 9.0 | 0.00 | 0.24 | 0.00 | 64 | 1004.9 |
| 20260508104950 | 46 | 270 | 4.0 | 11.0 | 0.00 | 0.25 | 0.00 | 64 | 1004.8 |
| 20260508104441 | 46 | 248 | 2.0 | 13.0 | 0.00 | 0.26 | 0.00 | 63 | 1004.9 |
| 20260508103420 | 46 | 225 | 3.0 | 11.0 | 0.00 | 0.45 | 0.00 | 62 | 1004.5 |
| 20260508102910 | 46 | 270 | 4.0 | 14.0 | 0.00 | 0.45 | 0.00 | 62 | 1004.3 |
| 20260508102400 | 47 | 23 | 5.0 | 14.0 | 0.00 | 0.46 | 0.00 | 62 | 1004.2 |
| 20260508101849 | 47 | 203 | 4.0 | 14.0 | 0.00 | 0.46 | 0.00 | 62 | 1004.2 |
| 20260508101341 | 47 | 113 | 2.0 | 14.0 | 0.00 | 0.47 | 0.00 | 63 | 1004.1 |
| 20260508100829 | 47 | 225 | 4.0 | 11.0 | 0.00 | 0.50 | 0.00 | 63 | 1004.1 |
| 20260508100320 | 47 | 225 | 2.0 | 11.0 | 0.00 | 0.51 | 0.00 | 64 | 1003.8 |
| 20260508095809 | 47 | 248 | 3.0 | 11.0 | 0.00 | 0.51 | 0.00 | 64 | 1003.8 |
| 20260508095259 | 47 | 203 | 4.0 | 11.0 | 0.00 | 0.51 | 0.00 | 65 | 1003.7 |
| 20260508094750 | 47 | 248 | 3.0 | 11.0 | 0.00 | 0.52 | 0.00 | 65 | 1003.6 |
| 20260508093728 | 47 | 248 | 3.0 | 9.0 | 0.00 | 0.57 | 0.00 | 67 | 1003.7 |
| 20260508093219 | 47 | 203 | 4.0 | 9.0 | 0.00 | 0.58 | 0.00 | 67 | 1003.4 |
| 20260508092708 | 48 | 248 | 3.0 | 9.0 | 0.00 | 0.58 | 0.00 | 69 | 1003.7 |
| 20260508092158 | 48 | 293 | 3.0 | 8.0 | 0.00 | 0.58 | 0.00 | 68 | 1003.6 |
| 20260508091648 | 48 | 225 | 1.0 | 9.0 | 0.00 | 0.58 | 0.00 | 70 | 1003.3 |
| 20260508091138 | 48 | 225 | 4.0 | 9.0 | 0.00 | 0.59 | 0.00 | 71 | 1003.5 |
| 20260508090628 | 48 | 248 | 4.0 | 9.0 | 0.00 | 0.60 | 0.00 | 71 | 1003.3 |
| 20260508090118 | 48 | 248 | 3.0 | 9.0 | 0.00 | 0.60 | 0.00 | 72 | 1003.5 |
| 20260508085609 | 48 | 270 | 4.0 | 11.0 | 0.00 | 0.60 | 0.00 | 73 | 1003.5 |
| 20260508085058 | 49 | 248 | 4.0 | 11.0 | 0.00 | 0.61 | 0.00 | 74 | 1003.4 |
| 20260508084037 | 49 | 135 | 2.0 | 11.0 | 0.00 | 0.64 | 0.00 | 75 | 1003.3 |
| 20260508083017 | 49 | 315 | 2.0 | 11.0 | 0.00 | 0.66 | 0.00 | 76 | 1003.2 |
| 20260508082507 | 49 | 23 | 2.0 | 13.0 | 0.00 | 0.67 | 0.00 | 76 | 1003.1 |
| 20260508081957 | 49 | 225 | 4.0 | 13.0 | 0.00 | 0.67 | 0.00 | 76 | 1003.3 |
| 20260508081446 | 49 | 203 | 4.0 | 11.0 | 0.00 | 0.70 | 0.00 | 77 | 1003.1 |
| 20260508080936 | 49 | 270 | 2.0 | 11.0 | 0.00 | 0.71 | 0.00 | 78 | 1003.1 |
| 20260508080426 | 50 | 90 | 2.0 | 11.0 | 0.00 | 0.71 | 0.00 | 78 | 1003.3 |
| 20260508075916 | 68 | 0 | 2.0 | 9.0 | 0.00 | 0.72 | 0.00 | 85 | 1003.3 |
| 20260508075406 | 50 | 270 | 2.0 | 8.0 | 0.00 | 0.72 | 0.00 | 78 | 1003.2 |
| 20260508074345 | 50 | 158 | 3.0 | 9.0 | 0.00 | 0.74 | 0.00 | 77 | 1003.2 |
| 20260508073840 | 50 | 180 | 2.0 | 11.0 | 0.00 | 0.74 | 0.00 | 77 | 1003.4 |
| 20260508072815 | 50 | 248 | 5.0 | 11.0 | 0.00 | 0.74 | 0.00 | 77 | 1003.4 |
| 20260508071754 | 50 | 293 | 2.0 | 11.0 | 0.00 | 0.74 | 0.00 | 77 | 1003.5 |
| 20260508071244 | 51 | 225 | 2.0 | 11.0 | 0.00 | 0.74 | 0.00 | 77 | 1003.3 |
| 20260508065715 | 51 | 270 | 5.0 | 11.0 | 0.00 | 0.74 | 0.00 | 76 | 1003.7 |
| 20260508065204 | 51 | 113 | 1.0 | 9.0 | 0.00 | 0.74 | 0.00 | 77 | 1003.4 |
| 20260508064144 | 51 | 248 | 3.0 | 9.0 | 0.00 | 0.74 | 0.00 | 77 | 1003.6 |
| 20260508063124 | 51 | 270 | 2.0 | 11.0 | 0.00 | 0.74 | 0.00 | 77 | 1003.3 |
| 20260508062627 | 51 | 248 | 3.0 | 9.0 | 0.00 | 0.74 | 0.00 | 77 | 1003.4 |
| 20260508062103 | 51 | 293 | 2.0 | 7.0 | 0.00 | 0.74 | 0.00 | 77 | 1003.2 |
| 20260508061553 | 51 | 90 | 2.0 | 11.0 | 0.00 | 0.74 | 0.00 | 76 | 1003.4 |
| 20260508061043 | 51 | 203 | 4.0 | 13.0 | 0.00 | 0.74 | 0.00 | 75 | 1003.3 |
| 20260508060532 | 51 | 270 | 6.0 | 13.0 | 0.00 | 0.74 | 0.00 | 74 | 1003.1 |
| 20260508060023 | 51 | 225 | 6.0 | 14.0 | 0.00 | 0.74 | 0.00 | 75 | 1003.3 |
| 20260508055513 | 51 | 225 | 8.0 | 14.0 | 0.00 | 0.74 | 0.00 | 75 | 1003.5 |
| 20260508055002 | 51 | 270 | 4.0 | 15.0 | 0.00 | 0.74 | 0.00 | 76 | 1003.3 |
| 20260508054452 | 51 | 225 | 6.0 | 15.0 | 0.00 | 0.74 | 0.00 | 76 | 1003.7 |
| 20260508052922 | 52 | 248 | 5.0 | 13.0 | 0.00 | 0.74 | 0.00 | 74 | 1003.6 |
| 20260508052412 | 52 | 113 | 6.0 | 14.0 | 0.00 | 0.74 | 0.00 | 74 | 1003.7 |
| 20260508051351 | 52 | 225 | 4.0 | 11.0 | 0.00 | 0.74 | 0.00 | 76 | 1003.1 |
| 20260508050842 | 52 | 203 | 4.0 | 11.0 | 0.00 | 0.74 | 0.00 | 76 | 1003.7 |
| 20260508050332 | 52 | 293 | 6.0 | 11.0 | 0.00 | 0.74 | 0.00 | 76 | 1003.4 |
| 20260508045821 | 52 | 248 | 2.0 | 11.0 | 0.00 | 0.74 | 0.00 | 76 | 1003.5 |
| 20260508045317 | 52 | 203 | 3.0 | 11.0 | 0.00 | 0.74 | 0.00 | 75 | 1003.3 |
| 20260508044801 | 52 | 203 | 2.0 | 13.0 | 0.00 | 0.74 | 0.00 | 75 | 1003.2 |
| 20260508044251 | 52 | 248 | 4.0 | 13.0 | 0.00 | 0.74 | 0.00 | 74 | 1003.4 |
| 20260508043740 | 53 | 180 | 6.0 | 13.0 | 0.00 | 0.74 | 0.00 | 73 | 1003.4 |
| 20260508043231 | 53 | 248 | 7.0 | 15.0 | 0.00 | 0.74 | 0.00 | 72 | 1003.5 |
| 20260508042210 | 53 | 45 | 7.0 | 20.0 | 0.00 | 0.74 | 0.00 | 70 | 1003.7 |
| 20260508041150 | 54 | 248 | 9.0 | 21.0 | 0.00 | 0.74 | 0.00 | 70 | 1003.6 |
| 20260508040639 | 54 | 203 | 10.0 | 23.0 | 0.00 | 0.74 | 0.00 | 69 | 1003.3 |
| 20260508040129 | 54 | 315 | 11.0 | 23.0 | 0.00 | 0.74 | 0.00 | 70 | 1003.5 |
| 20260508035619 | 54 | 270 | 11.0 | 23.0 | 0.00 | 0.74 | 0.00 | 69 | 1003.3 |
| 20260508035109 | 55 | 270 | 6.0 | 23.0 | 0.00 | 0.74 | 0.00 | 72 | 1003.5 |
| 20260508034049 | 55 | 113 | 6.0 | 16.0 | 0.00 | 0.74 | 0.00 | 73 | 1003.2 |
| 20260508033538 | 55 | 293 | 8.0 | 18.0 | 0.00 | 0.74 | 0.00 | 73 | 1003.3 |
| 20260508032518 | 55 | 203 | 3.0 | 16.0 | 0.00 | 0.74 | 0.00 | 73 | 1003.2 |
| 20260508032008 | 55 | 225 | 4.0 | 16.0 | 0.00 | 0.74 | 0.00 | 74 | 1002.9 |
| 20260508031458 | 55 | 225 | 7.0 | 16.0 | 0.00 | 0.74 | 0.00 | 73 | 1003.0 |
| 20260508030437 | 56 | 225 | 5.0 | 11.0 | 0.00 | 0.74 | 0.00 | 73 | 1002.8 |
| 20260508025928 | 56 | 203 | 3.0 | 11.0 | 0.00 | 0.74 | 0.74 | 72 | 1002.8 |
| 20260508025417 | 56 | 248 | 4.0 | 24.0 | 0.00 | 0.74 | 0.74 | 72 | 1003.2 |
| 20260508024907 | 56 | 225 | 6.0 | 24.0 | 0.00 | 0.74 | 0.74 | 72 | 1003.1 |
| 20260508023337 | 56 | 203 | 5.0 | 11.0 | 0.00 | 0.74 | 0.74 | 74 | 1002.9 |
| 20260508022829 | 56 | 248 | 4.0 | 11.0 | 0.00 | 0.74 | 0.74 | 75 | 1002.9 |
| 20260508021806 | 56 | 270 | 2.0 | 11.0 | 0.00 | 0.74 | 0.74 | 76 | 1002.8 |
| 20260508021256 | 56 | 135 | 4.0 | 13.0 | 0.00 | 0.74 | 0.74 | 75 | 1002.9 |
| 20260508020747 | 56 | 225 | 4.0 | 13.0 | 0.00 | 0.74 | 0.74 | 74 | 1002.5 |
| 20260508020302 | 56 | 248 | 4.0 | 11.0 | 0.00 | 0.74 | 0.74 | 74 | 1002.5 |
| 20260508015215 | 56 | 315 | 5.0 | 9.0 | 0.00 | 0.74 | 0.74 | 75 | 1002.5 |
| 20260508014705 | 56 | 203 | 4.0 | 11.0 | 0.00 | 0.74 | 0.74 | 76 | 1002.3 |
| 20260508014156 | 56 | 248 | 2.0 | 11.0 | 0.00 | 0.74 | 0.74 | 77 | 1002.0 |
| 20260508013646 | 56 | 203 | 5.0 | 9.0 | 0.00 | 0.74 | 0.74 | 77 | 1001.9 |
| 20260508013135 | 56 | 203 | 4.0 | 8.0 | 0.00 | 0.74 | 0.74 | 78 | 1002.2 |
| 20260508012626 | 56 | 225 | 4.0 | 7.0 | 0.00 | 0.74 | 0.74 | 79 | 1001.9 |
| 20260508012115 | 56 | 203 | 2.0 | 7.0 | 0.00 | 0.74 | 0.74 | 79 | 1001.8 |
| 20260508011606 | 56 | 270 | 4.0 | 6.0 | 0.00 | 0.74 | 0.74 | 79 | 1002.1 |
| 20260508011055 | 56 | 248 | 2.0 | 7.0 | 0.00 | 0.74 | 0.74 | 79 | 1002.1 |
| 20260508010545 | 56 | 203 | 2.0 | 7.0 | 0.00 | 0.74 | 0.74 | 79 | 1002.0 |
| 20260508010034 | 56 | 270 | 3.0 | 8.0 | 0.00 | 0.74 | 0.74 | 78 | 1001.8 |
| 20260508005524 | 56 | 293 | 3.0 | 8.0 | 0.00 | 0.74 | 0.74 | 79 | 1002.3 |
| 20260508005019 | 56 | 248 | 3.0 | 7.0 | 0.00 | 0.74 | 0.74 | 79 | 1002.1 |
| 20260508004504 | 56 | 90 | 1.0 | 8.0 | 0.00 | 0.74 | 0.74 | 80 | 1002.3 |
| 20260508004007 | 55 | 248 | 3.0 | 8.0 | 0.00 | 0.74 | 0.74 | 80 | 1002.5 |
| 20260508003444 | 55 | 293 | 2.0 | 4.0 | 0.00 | 0.74 | 0.74 | 80 | 1003.1 |
| 20260508001913 | 55 | 23 | 1.0 | 4.0 | 0.00 | 0.74 | 0.74 | 84 | 1002.9 |
| 20260508001405 | 54 | 225 | 2.0 | 4.0 | 0.00 | 0.74 | 0.74 | 84 | 1002.6 |
| 20260508000343 | 54 | 293 | 2.0 | 6.0 | 0.00 | 0.74 | 0.74 | 84 | 1002.4 |
| 20260507235833 | 55 | 45 | 1.0 | 4.0 | 0.00 | 0.74 | 0.74 | 84 | 1002.7 |
| 20260507235323 | 55 | 203 | 0.0 | 4.0 | 0.00 | 0.74 | 0.74 | 84 | 1003.0 |
| 20260507234813 | 55 | 158 | 0.0 | 4.0 | 0.00 | 0.74 | 0.74 | 84 | 1002.8 |
| 20260507234302 | 55 | 23 | 0.0 | 2.0 | 0.00 | 0.74 | 0.74 | 83 | 1002.8 |
| 20260507233753 | 55 | 23 | 0.0 | 2.0 | 0.00 | 0.74 | 0.74 | 83 | 1002.8 |
| 20260507233242 | 55 | 0 | 0.0 | 4.0 | 0.00 | 0.74 | 0.74 | 83 | 1002.8 |
| 20260507232731 | 55 | 45 | 0.0 | 4.0 | 0.00 | 0.74 | 0.74 | 82 | 1002.7 |
| 20260507232222 | 55 | 135 | 1.0 | 2.0 | 0.00 | 0.74 | 0.74 | 82 | 1002.6 |
| 20260507231712 | 55 | 68 | 0.0 | 2.0 | 0.00 | 0.74 | 0.74 | 83 | 1002.5 |
| 20260507231201 | 55 | 315 | 0.0 | 4.0 | 0.00 | 0.74 | 0.74 | 83 | 1002.9 |
| 20260507230651 | 55 | 248 | 0.0 | 4.0 | 0.00 | 0.74 | 0.74 | 83 | 1003.0 |
| 20260507225121 | 55 | 68 | 0.0 | 4.0 | 0.00 | 0.74 | 0.74 | 83 | 1003.2 |
| 20260507224611 | 56 | 0 | 0.0 | 4.0 | 0.00 | 0.74 | 0.74 | 83 | 1003.6 |
| 20260507224102 | 56 | 68 | 0.0 | 2.0 | 0.00 | 0.74 | 0.74 | 83 | 1003.9 |
| 20260507223550 | 55 | 270 | 0.0 | 2.0 | 0.00 | 0.74 | 0.74 | 83 | 1003.4 |
| 20260507223041 | 55 | 270 | 0.0 | 2.0 | 0.00 | 0.74 | 0.74 | 83 | 1003.8 |
| 20260507222021 | 56 | 270 | 0.0 | 4.0 | 0.00 | 0.74 | 0.74 | 82 | 1003.3 |
| 20260507221523 | 56 | 338 | 0.0 | 2.0 | 0.00 | 0.74 | 0.74 | 82 | 1003.6 |
| 20260507220449 | 56 | 293 | 0.0 | 2.0 | 0.00 | 0.74 | 0.74 | 83 | 1004.2 |
| 20260507215940 | 56 | 293 | 0.0 | 2.0 | 0.00 | 0.74 | 0.74 | 82 | 1004.1 |
| 20260507215429 | 56 | 23 | 0.0 | 0.0 | 0.00 | 0.74 | 0.74 | 83 | 1004.2 |
| 20260507214920 | 56 | 23 | 0.0 | 2.0 | 0.00 | 0.74 | 0.74 | 84 | 1003.9 |
| 20260507213858 | 56 | 68 | 0.0 | 0.0 | 0.00 | 0.74 | 0.74 | 85 | 1003.7 |
| 20260507213348 | 56 | 293 | 0.0 | 0.0 | 0.00 | 0.74 | 0.74 | 83 | 1003.4 |
| 20260507212839 | 56 | 338 | 0.0 | 2.0 | 0.00 | 0.74 | 0.74 | 84 | 1003.3 |
| 20260507212328 | 56 | 23 | 0.0 | 2.0 | 0.00 | 0.74 | 0.74 | 83 | 1003.4 |
| 20260507211819 | 56 | 23 | 1.0 | 2.0 | 0.00 | 0.74 | 0.74 | 83 | 1003.6 |
| 20260507211308 | 56 | 293 | 0.0 | 2.0 | 0.00 | 0.74 | 0.74 | 83 | 1003.7 |
| 20260507210249 | 56 | 0 | 0.0 | 4.0 | 0.00 | 0.74 | 0.74 | 81 | 1003.7 |
| 20260507205738 | 56 | 270 | 1.0 | 6.0 | 0.00 | 0.74 | 0.74 | 78 | 1004.1 |
| 20260507205232 | 56 | 68 | 1.0 | 8.0 | 0.01 | 0.74 | 0.74 | 79 | 1003.5 |
| 20260507204718 | 56 | 315 | 4.0 | 9.0 | 0.01 | 0.74 | 0.74 | 78 | 1002.6 |
| 20260507203148 | 56 | 158 | 2.0 | 8.0 | 0.02 | 0.74 | 0.74 | 83 | 1001.7 |
| 20260507202637 | 56 | 225 | 2.0 | 8.0 | 0.02 | 0.74 | 0.74 | 83 | 1001.2 |
| 20260507202127 | 56 | 248 | 2.0 | 8.0 | 0.04 | 0.74 | 0.74 | 84 | 1001.0 |
| 20260507201617 | 56 | 270 | 4.0 | 8.0 | 0.04 | 0.74 | 0.74 | 83 | 1001.9 |
| 20260507201106 | 56 | 203 | 2.0 | 6.0 | 0.04 | 0.74 | 0.74 | 83 | 1001.8 |
| 20260507195536 | 57 | 203 | 2.0 | 11.0 | 0.04 | 0.74 | 0.74 | 86 | 1002.8 |
| 20260507195026 | 57 | 248 | 1.0 | 7.0 | 0.02 | 0.73 | 0.73 | 85 | 1001.7 |
| 20260507194515 | 57 | 270 | 3.0 | 7.0 | 0.02 | 0.73 | 0.73 | 86 | 1000.5 |
| 20260507194007 | 57 | 225 | 2.0 | 6.0 | 0.02 | 0.73 | 0.73 | 85 | 999.6 |
| 20260507192945 | 57 | 248 | 2.0 | 6.0 | 0.01 | 0.72 | 0.72 | 85 | 999.6 |
| 20260507192436 | 58 | 225 | 2.0 | 7.0 | 0.01 | 0.72 | 0.72 | 84 | 999.4 |
| 20260507191925 | 58 | 225 | 2.0 | 7.0 | 0.00 | 0.71 | 0.71 | 82 | 999.4 |
| 20260507191414 | 59 | 248 | 3.0 | 7.0 | 0.00 | 0.71 | 0.71 | 80 | 1000.2 |
| 20260507185844 | 59 | 248 | 4.0 | 14.0 | 0.00 | 0.71 | 0.71 | 77 | 1001.2 |
| 20260507185347 | 59 | 225 | 8.0 | 15.0 | 0.00 | 0.71 | 0.71 | 76 | 1000.9 |
| 20260507184824 | 60 | 68 | 6.0 | 15.0 | 0.00 | 0.71 | 0.71 | 80 | 1000.7 |
| 20260507184314 | 60 | 225 | 4.0 | 8.0 | 0.00 | 0.71 | 0.71 | 83 | 1000.6 |
| 20260507183804 | 60 | 248 | 2.0 | 7.0 | 0.00 | 0.71 | 0.71 | 84 | 1000.0 |
| 20260507183254 | 60 | 203 | 3.0 | 6.0 | 0.00 | 0.71 | 0.71 | 84 | 1000.1 |
| 20260507182744 | 60 | 248 | 2.0 | 7.0 | 0.00 | 0.71 | 0.71 | 84 | 1000.5 |
| 20260507182230 | 60 | 225 | 3.0 | 7.0 | 0.00 | 0.71 | 0.71 | 84 | 1000.7 |
| 20260507181720 | 60 | 225 | 2.0 | 7.0 | 0.00 | 0.71 | 0.71 | 84 | 1000.2 |
| 20260507181210 | 60 | 225 | 3.0 | 8.0 | 0.00 | 0.71 | 0.71 | 83 | 1001.4 |
| 20260507180158 | 61 | 248 | 2.0 | 9.0 | 0.00 | 0.71 | 0.71 | 81 | 1002.7 |
| 20260507175642 | 61 | 248 | 4.0 | 11.0 | 0.00 | 0.71 | 0.71 | 79 | 1002.4 |
| 20260507175132 | 61 | 248 | 4.0 | 11.0 | 0.00 | 0.71 | 0.71 | 78 | 1001.8 |
| 20260507174622 | 61 | 270 | 4.0 | 14.0 | 0.00 | 0.71 | 0.71 | 78 | 1001.6 |
| 20260507174112 | 61 | 225 | 5.0 | 14.0 | 0.00 | 0.71 | 0.71 | 78 | 1001.5 |
| 20260507173604 | 62 | 248 | 4.0 | 15.0 | 0.00 | 0.71 | 0.71 | 79 | 1001.6 |
| 20260507173052 | 62 | 293 | 5.0 | 15.0 | 0.00 | 0.71 | 0.71 | 78 | 1001.6 |
| 20260507172542 | 63 | 203 | 4.0 | 14.0 | 0.00 | 0.71 | 0.71 | 77 | 1001.5 |
| 20260507172032 | 63 | 248 | 8.0 | 14.0 | 0.00 | 0.71 | 0.71 | 76 | 1001.5 |
| 20260507171521 | 64 | 248 | 5.0 | 13.0 | 0.00 | 0.71 | 0.71 | 78 | 1001.1 |
| 20260507171011 | 64 | 135 | 4.0 | 17.0 | 0.00 | 0.71 | 0.71 | 79 | 1001.3 |
| 20260507170501 | 65 | 248 | 6.0 | 17.0 | 0.00 | 0.71 | 0.71 | 81 | 1001.6 |
| 20260507165951 | 66 | 270 | 8.0 | 11.0 | 0.00 | 0.71 | 0.71 | 77 | 1001.3 |
| 20260507165442 | 65 | 225 | 3.0 | 11.0 | 0.00 | 0.71 | 0.71 | 78 | 1001.3 |
| 20260507164931 | 65 | 180 | 7.0 | 13.0 | 0.00 | 0.71 | 0.71 | 77 | 1001.4 |
| 20260507164421 | 65 | 315 | 4.0 | 13.0 | 0.00 | 0.71 | 0.71 | 80 | 1002.2 |
| 20260507163910 | 65 | 248 | 4.0 | 9.0 | 0.00 | 0.71 | 0.71 | 85 | 1002.1 |
| 20260507163401 | 65 | 225 | 2.0 | 14.0 | 0.00 | 0.71 | 0.71 | 86 | 1002.4 |
| 20260507162851 | 65 | 225 | 4.0 | 14.0 | 0.00 | 0.71 | 0.71 | 86 | 1001.8 |
| 20260507162345 | 65 | 248 | 1.0 | 11.0 | 0.00 | 0.71 | 0.71 | 87 | 1001.7 |
| 20260507161320 | 65 | 158 | 4.0 | 13.0 | 0.00 | 0.71 | 0.71 | 86 | 1001.4 |
| 20260507160811 | 65 | 270 | 5.0 | 13.0 | 0.00 | 0.71 | 0.71 | 85 | 1001.0 |
| 20260507160300 | 65 | 293 | 4.0 | 9.0 | 0.00 | 0.71 | 0.71 | 85 | 1001.2 |
| 20260507155239 | 65 | 180 | 2.0 | 4.0 | 0.00 | 0.71 | 0.71 | 85 | 1000.7 |
| 20260507154729 | 66 | 225 | 1.0 | 6.0 | 0.00 | 0.71 | 0.71 | 84 | 1001.5 |
| 20260507153708 | 66 | 270 | 2.0 | 7.0 | 0.00 | 0.71 | 0.71 | 84 | 1000.6 |
| 20260507153159 | 66 | 158 | 3.0 | 7.0 | 0.00 | 0.71 | 0.71 | 84 | 1000.0 |
| 20260507152648 | 65 | 135 | 2.0 | 7.0 | 0.00 | 0.71 | 0.71 | 85 | 1000.0 |
| 20260507152138 | 65 | 135 | 2.0 | 6.0 | 0.00 | 0.71 | 0.71 | 87 | 999.8 |
| 20260507151628 | 64 | 248 | 2.0 | 4.0 | 0.00 | 0.71 | 0.71 | 89 | 999.8 |
| 20260507151118 | 64 | 203 | 2.0 | 4.0 | 0.00 | 0.71 | 0.71 | 90 | 1000.1 |
| 20260507150608 | 63 | 180 | 1.0 | 6.0 | 0.00 | 0.71 | 0.71 | 91 | 1000.2 |